Wind_Speed
18 19 20 20 20 21 22 21 22 22 22 22 22 23 23 23 23 23 24 24 25 26 26 26 26 25 25 25 26 26 26 27 27 27 27 27 28 28 28 28 27 27 28
18 19 20 20 21 22 22 21 21 21 21 22 22 23 23 23 23 24 25 25 26 26 26 27 27 27 27 26 26 26 27 27 27 27 27 27 28 28 28 28 28 28 28
19 19 20 21 21 21 21 21 22 22 22 22 23 24 24 25 25 25 26 26 26 27 27 27 27 27 27 27 27 28 28 28 28 28 29 28 28 28 28 28 28 28 28
20 19 19 20 19 19 19 21 22 23 23 24 24 25 25 24 25 26 26 27 27 27 27 27 27 27 27 27 28 28 29 29 29 29 30 30 29 29 28 29 29 29 29
20 19 20 20 19 20 20 21 23 23 23 24 24 24 25 25 26 27 27 28 28 28 28 28 28 28 28 27 27 28 29 29 30 30 30 30 30 29 29 28 29 29 29
20 20 20 20 19 20 21 22 23 23 23 24 25 25 26 27 28 28 28 28 28 28 29 29 29 29 29 28 28 28 29 29 29 30 30 30 30 30 29 29 29 29 30
19 20 20 20 19 20 21 22 22 24 24 25 26 26 27 27 28 28 28 29 29 29 29 29 29 29 29 29 29 30 30 29 29 29 30 30 30 30 30 30 30 30 30
20 20 21 20 19 19 21 22 23 23 24 25 25 26 26 26 27 28 28 28 28 28 29 29 29 29 29 29 30 30 30 30 30 29 29 29 30 30 30 30 30 30 30
20 21 21 21 21 20 21 22 23 24 24 25 25 26 26 27 27 27 28 28 28 28 27 27 28 28 28 29 29 30 31 31 30 29 29 29 29 30 30 30 30 30 30
21 21 21 21 21 22 22 23 23 24 24 24 25 26 26 26 27 27 28 28 27 27 27 27 27 27 27 28 30 30 30 30 29 29 29 29 29 29 30 30 29 29 29
21 21 21 22 22 22 23 25 25 25 24 25 25 25 26 26 27 27 27 26 26 27 26 26 26 26 27 27 28 29 29 28 29 29 28 28 29 29 28 28 28 28 28
22 22 22 22 21 22 23 24 24 25 25 25 25 25 25 25 25 25 25 25 24 24 24 23 24 24 24 25 26 26 26 26 26 27 27 27 27 27 27 27 26 27 27
23 22 22 22 22 23 24 24 23 24 25 24 24 25 24 24 24 23 23 23 21 21 21 21 20 21 22 23 23 23 23 23 23 24 24 24 24 25 25 25 25 25 24
22 21 21 22 22 23 23 23 24 24 23 23 23 23 22 22 21 21 21 20 19 19 18 18 18 19 19 20 20 21 20 21 20 21 21 22 22 22 22 23 23 23 22
20 21 21 21 22 22 22 22 23 22 21 21 20 20 20 20 19 18 17 17 17 17 16 16 16 17 17 17 18 18 18 18 18 18 18 18 18 19 19 19 19 19 19
20 21 22 21 21 21 21 21 20 20 19 19 18 18 18 17 17 16 16 16 16 15 15 15 15 15 16 16 16 16 16 16 15 15 15 15 15 15 15 14 14 15 15
20 20 21 20 19 19 19 19 19 18 18 18 17 17 16 15 15 14 14 14 15 14 14 14 14 15 15 15 15 14 14 13 13 13 13 13 12 11 10 10 10 11 12
18 19 19 18 17 17 17 18 18 17 17 16 15 15 14 14 14 13 13 13 14 12 11 12 13 13 13 13 13 13 13 13 12 11 11 10 9 8 7 7 8 8 8
17 17 17 16 17 17 16 16 16 16 16 14 13 13 12 12 12 11 11 11 11 11 10 11 12 12 12 12 12 12 12 11 10 10 9 8 7 7 6 5 5 5 5
16 16 16 15 15 15 15 14 14 14 13 12 12 11 11 11 10 10 10 9 9 10 9 10 9 10 12 12 11 10 10 10 9 9 7 7 6 5 5 4 3 2 2
15 14 14 14 14 13 13 12 11 11 11 11 10 10 9 9 9 8 8 8 8 8 8 9 9 10 11 11 10 9 9 9 9 9 8 7 7 6 5 4 3 2 2
13 12 12 11 11 11 10 8 9 9 9 9 8 7 7 8 8 7 7 8 8 8 7 9 9 10 11 11 11 10 9 9 9 9 8 8 8 8 6 5 4 4 4
10 9 9 9 9 9 7 6 7 8 7 6 6 6 6 7 8 7 7 7 8 8 8 9 9 10 10 10 10 10 10 10 10 9 9 9 9 8 8 8 7 6 5
8 8 7 7 7 7 7 7 7 6 6 5 5 5 6 7 7 7 7 7 8 7 8 8 9 10 9 9 9 9 10 10 10 10 10 10 10 9 9 9 8 7 7
7 6 6 6 6 6 7 6 5 5 5 5 5 5 5 6 7 7 7 7 7 8 8 8 9 9 9 9 9 10 10 10 10 11 11 11 10 10 9 9 9 8 7
6 5 5 6 6 6 6 5 5 4 4 4 4 4 5 6 6 7 8 8 8 8 8 8 9 9 9 10 10 10 11 11 10 11 11 11 10 10 10 9 9 8 8
Wind_Direction
281 283 285 286 287 286 285 285 288 286 283 282 279 278 279 281 281 282 283 283 282 281 282 283 282 281 282 282 281 281 282 282 281 281 280 279 277 276 276 276 276 276 276
285 284 284 286 287 286 284 283 285 287 286 284 284 282 282 281 283 287 287 286 285 284 282 282 282 282 282 282 282 282 283 283 283 282 281 281 280 278 277 277 276 276 276
287 286 285 286 286 284 284 287 288 289 289 289 289 286 284 284 285 286 286 285 286 286 284 283 283 283 283 283 283 282 283 283 283 282 282 281 281 280 279 278 278 277 275
288 290 289 290 289 289 287 288 289 289 291 290 289 287 286 286 286 286 286 285 286 286 285 283 284 284 284 284 284 283 283 283 282 281 281 280 280 280 280 278 277 277 276
290 292 292 291 289 289 289 288 288 289 292 292 289 288 287 287 286 285 285 284 285 285 286 285 285 285 284 284 284 284 284 283 281 280 280 279 279 279 279 278 277 276 276
292 292 292 292 289 289 288 288 289 289 291 291 291 290 290 288 287 286 286 285 284 285 285 284 286 285 284 285 285 286 285 284 283 281 280 279 278 278 278 278 278 277 277
294 298 296 295 291 291 290 288 291 291 292 292 292 292 292 291 290 288 287 286 286 286 286 285 286 286 285 285 285 286 286 285 285 283 282 280 279 279 278 278 278 278 277
293 296 297 299 296 295 293 292 293 294 297 297 295 292 293 294 293 290 287 287 287 287 287 285 285 285 285 285 285 285 285 285 285 284 283 282 280 279 279 278 277 277 276
290 291 295 297 298 298 296 296 299 298 298 298 297 294 294 295 293 292 290 289 287 287 288 286 285 285 286 285 285 285 285 285 285 284 283 282 280 279 278 277 276 275 275
289 291 293 296 297 298 301 302 301 299 298 297 297 296 295 295 294 292 293 291 289 288 288 288 288 287 287 287 286 286 285 285 284 283 283 282 280 279 278 276 276 276 275
291 292 292 293 296 298 300 300 300 300 298 298 299 298 297 297 296 294 294 293 292 292 291 289 288 288 289 289 289 288 287 285 284 284 283 281 279 278 277 276 275 275 275
290 291 293 293 296 297 298 300 301 302 302 301 300 299 298 298 298 297 298 299 297 295 294 294 293 291 292 292 292 291 290 289 286 285 283 281 279 278 276 275 274 274 274
288 291 294 296 296 297 298 300 303 305 304 301 301 301 301 301 301 301 301 303 303 299 297 298 298 297 296 296 296 295 295 292 289 287 284 282 281 279 277 275 273 273 274
290 292 293 295 295 297 299 300 303 305 304 303 303 304 303 304 304 303 303 305 305 303 300 300 302 302 301 299 300 300 298 296 293 290 288 285 283 281 278 275 273 271 270
290 292 293 295 296 297 299 301 303 304 305 306 307 308 307 306 306 305 305 307 308 309 308 307 307 308 307 306 306 304 301 300 297 295 294 290 287 285 282 277 273 269 267
290 292 294 296 296 297 299 303 304 307 308 308 308 310 311 310 307 307 307 308 309 311 313 314 314 314 314 314 312 309 306 304 302 301 301 299 295 290 284 277 272 270 269
292 294 295 297 297 298 301 304 307 307 309 310 309 310 312 311 309 309 311 311 313 312 313 317 320 321 321 319 318 316 315 313 311 307 306 307 307 300 292 283 277 271 270
296 298 297 297 297 300 304 305 304 305 307 310 311 309 311 311 311 313 316 317 319 319 320 322 324 324 324 325 327 326 325 326 323 318 316 313 313 315 308 295 284 278 275
302 303 302 302 302 303 304 304 303 303 305 308 311 312 313 315 318 318 322 324 326 327 328 330 332 333 334 333 332 334 336 334 333 332 330 326 323 324 323 315 303 292 280
304 305 305 306 305 305 306 305 307 305 308 311 314 317 318 322 328 332 334 335 337 337 337 341 344 346 347 346 346 345 344 347 349 351 351 348 345 346 345 344 339 318 284
304 305 306 307 308 309 309 311 315 316 316 319 322 324 324 327 329 335 338 339 343 348 354 357 355 356 356 358 2 2 2 7 12 15 17 15 13 13 15 22 30 36 50
304 304 306 310 314 316 317 319 328 330 328 327 330 338 343 347 346 342 350 353 355 358 360 359 359 2 7 12 18 21 23 25 26 28 29 29 32 40 46 52 62 67 69
308 309 310 316 322 325 327 332 334 339 341 340 349 354 351 356 5 8 7 13 10 8 7 5 4 5 10 20 29 32 32 33 35 41 45 46 48 49 52 57 63 65 65
310 313 320 325 326 328 332 337 339 344 348 349 353 356 356 360 11 20 25 24 20 19 18 16 17 17 21 28 32 35 39 42 46 48 48 49 51 53 56 58 61 65 64
310 315 324 329 330 336 342 345 349 351 359 3 2 9 15 16 19 24 27 24 23 25 26 26 26 30 36 40 43 46 48 48 49 50 49 50 52 54 54 55 54 56 57
314 321 328 330 334 339 346 357 0 360 6 14 17 23 24 26 26 27 30 33 36 39 41 38 38 42 48 51 54 54 52 52 54 54 55 53 52 51 50 49 47 47 46
Height
5856 5856 5855 5854 5853 5852 5851 5850 5849 5847 5846 5846 5845 5845 5844 5843 5843 5842 5842 5841 5840 5839 5838 5837 5836 5835 5835 5834 5833 5832 5831 5831 5830 5830 5829 5829 5828 5828 5828 5828 5828 5828 5827
5853 5852 5851 5850 5849 5848 5847 5846 5845 5843 5842 5841 5841 5840 5839 5838 5838 5837 5836 5835 5834 5832 5832 5831 5830 5829 5828 5827 5826 5825 5825 5824 5823 5823 5822 5822 5822 5821 5821 5821 5820 5820 5820
5849 5848 5847 5846 5845 5843 5842 5842 5841 5839 5838 5837 5836 5835 5834 5833 5832 5831 5830 5829 5827 5826 5825 5824 5823 5822 5821 5820 5819 5818 5818 5817 5816 5815 5815 5814 5814 5813 5813 5813 5813 5813 5813
5845 5844 5843 5841 5840 5839 5838 5837 5836 5835 5834 5832 5831 5829 5828 5827 5826 5825 5824 5822 5821 5819 5818 5817 5816 5815 5814 5813 5812 5811 5810 5809 5809 5808 5807 5806 5806 5806 5806 5806 5805 5805 5805
5841 5839 5838 5836 5835 5835 5834 5832 5831 5830 5828 5827 5825 5824 5822 5821 5820 5819 5817 5816 5814 5813 5811 5810 5809 5808 5807 5806 5805 5804 5803 5802 5801 5800 5799 5799 5798 5798 5798 5798 5798 5798 5798
5837 5835 5834 5832 5831 5830 5829 5828 5827 5825 5823 5821 5820 5818 5817 5815 5813 5812 5810 5809 5807 5806 5805 5803 5802 5801 5800 5799 5798 5797 5796 5794 5793 5792 5792 5791 5790 5790 5790 5790 5790 5790 5790
5833 5831 5829 5828 5826 5825 5824 5823 5821 5820 5818 5816 5814 5812 5810 5808 5806 5805 5803 5802 5800 5799 5797 5796 5795 5794 5793 5791 5791 5790 5788 5787 5786 5785 5784 5783 5782 5782 5782 5782 5782 5782 5782
5829 5827 5825 5824 5820 5820 5820 5818 5816 5815 5813 5810 5808 5806 5804 5802 5799 5798 5796 5794 5793 5791 5789 5788 5787 5786 5785 5784 5783 5782 5780 5779 5778 5776 5775 5775 5774 5773 5773 5773 5774 5774 5774
5825 5823 5822 5820 5818 5816 5815 5814 5811 5809 5807 5805 5802 5800 5798 5795 5793 5791 5789 5787 5785 5784 5782 5780 5779 5778 5777 5776 5775 5773 5772 5771 5769 5768 5767 5767 5766 5765 5765 5765 5765 5766 5766
5821 5820 5818 5816 5814 5812 5810 5808 5806 5804 5801 5799 5796 5793 5791 5789 5786 5784 5782 5779 5777 5776 5774 5773 5772 5770 5769 5768 5766 5765 5764 5762 5761 5760 5759 5758 5758 5757 5757 5756 5757 5757 5757
5817 5816 5814 5811 5810 5808 5805 5803 5801 5798 5795 5793 5790 5787 5785 5782 5780 5778 5775 5773 5771 5769 5767 5766 5764 5762 5761 5760 5758 5757 5755 5754 5753 5752 5751 5750 5749 5749 5749 5748 5748 5749 5749
5813 5811 5808 5806 5804 5802 5800 5798 5795 5792 5789 5786 5784 5781 5779 5776 5774 5771 5769 5767 5764 5762 5761 5759 5757 5755 5754 5753 5751 5749 5748 5746 5745 5744 5743 5742 5741 5741 5741 5741 5741 5741 5741
5808 5806 5804 5802 5799 5798 5795 5793 5790 5787 5784 5781 5779 5776 5773 5770 5768 5765 5763 5761 5758 5757 5755 5753 5751 5750 5748 5747 5745 5743 5741 5739 5738 5737 5736 5735 5734 5733 5733 5733 5734 5734 5734
5803 5801 5799 5797 5795 5793 5790 5788 5785 5782 5779 5777 5774 5771 5768 5765 5763 5760 5758 5756 5754 5752 5750 5748 5746 5745 5743 5741 5739 5737 5735 5734 5732 5731 5729 5728 5727 5727 5726 5726 5727 5727 5727
5798 5796 5794 5792 5790 5788 5785 5783 5780 5777 5774 5772 5769 5767 5764 5761 5759 5756 5754 5752 5750 5748 5746 5744 5742 5741 5739 5736 5734 5732 5730 5729 5727 5726 5724 5723 5721 5720 5720 5720 5720 5721 5721
5794 5792 5789 5787 5785 5782 5780 5778 5775 5772 5770 5768 5765 5763 5760 5757 5755 5753 5751 5749 5747 5745 5743 5741 5739 5737 5735 5732 5730 5728 5726 5724 5723 5721 5720 5718 5717 5716 5715 5715 5715 5716 5716
5788 5787 5784 5782 5780 5777 5775 5773 5770 5768 5766 5764 5761 5759 5757 5754 5752 5750 5748 5746 5745 5743 5741 5739 5737 5734 5732 5729 5727 5725 5723 5721 5720 5718 5717 5715 5714 5712 5711 5711 5711 5712 5712
5784 5782 5779 5777 5775 5773 5771 5769 5767 5765 5762 5760 5758 5756 5754 5752 5750 5748 5746 5744 5742 5740 5738 5736 5734 5732 5730 5727 5725 5723 5721 5719 5717 5715 5714 5713 5711 5710 5710 5709 5709 5709 5709
5779 5777 5774 5772 5771 5769 5767 5765 5763 5761 5759 5757 5755 5753 5752 5750 5748 5746 5744 5742 5740 5739 5737 5735 5733 5731 5728 5726 5724 5722 5720 5718 5716 5714 5712 5711 5710 5709 5708 5708 5708 5707 5708
5775 5773 5771 5769 5767 5765 5763 5761 5759 5758 5756 5755 5753 5751 5750 5748 5746 5744 5743 5741 5739 5737 5736 5734 5732 5730 5728 5725 5723 5721 5719 5717 5715 5713 5712 5710 5709 5708 5708 5707 5707 5707 5707
5771 5769 5768 5766 5764 5762 5760 5759 5757 5756 5754 5753 5751 5750 5748 5747 5745 5744 5742 5740 5739 5737 5736 5734 5732 5730 5728 5726 5723 5721 5720 5718 5716 5714 5712 5711 5709 5708 5708 5707 5707 5707 5707
5768 5766 5764 5763 5762 5760 5758 5757 5755 5754 5753 5751 5750 5749 5747 5746 5744 5743 5742 5740 5739 5737 5736 5734 5733 5731 5729 5726 5724 5722 5721 5719 5717 5715 5714 5712 5711 5710 5709 5709 5708 5708 5709
5766 5764 5762 5761 5760 5758 5757 5756 5755 5753 5752 5751 5749 5748 5747 5746 5744 5743 5742 5740 5739 5738 5736 5735 5733 5731 5729 5728 5726 5724 5723 5721 5719 5717 5716 5715 5713 5712 5712 5711 5711 5710 5710
5764 5762 5761 5760 5759 5757 5756 5755 5754 5753 5752 5751 5750 5748 5747 5746 5745 5743 5742 5741 5740 5739 5737 5736 5734 5732 5731 5729 5728 5726 5725 5723 5722 5720 5719 5718 5717 5716 5715 5714 5713 5713 5712
5763 5761 5760 5759 5758 5757 5756 5755 5754 5753 5752 5751 5750 5749 5748 5747 5746 5745 5743 5742 5741 5740 5738 5737 5736 5734 5733 5732 5730 5729 5727 5726 5725 5724 5722 5721 5720 5719 5718 5717 5716 5715 5715
5761 5760 5759 5759 5758 5757 5756 5755 5754 5753 5752 5751 5750 5749 5749 5748 5747 5746 5744 5743 5742 5741 5740 5739 5738 5736 5735 5734 5733 5731 5730 5729 5728 5727 5725 5724 5723 5722 5721 5720 5719 5718 5717